When you browse on this site, cookies collect data to enhance your experience and personalize the content and advertising you see.
Visit our Privacy Policy to learn more. By continuing to use the site, you agree to this use of cookies and data.

Hourly Weather Kadryakovo

Today, 3 July, Friday

Time Temperature Precipitation Wind Pressure Humidity
00:00 +16°C° 0.1 mm 2 mps 749 mmHg 94%
01:00 +15°C° 0.1 mm 2 mps 749 mmHg 94%
02:00 +15°C° 0 mm 2 mps 749 mmHg 94%
03:00 +15°C° 0 mm 2 mps 750 mmHg 94%
04:00 +14°C° 0 mm 2 mps 750 mmHg 94%
05:00 +15°C° 0 mm 2 mps 750 mmHg 92%
06:00 +16°C° 0 mm 2 mps 750 mmHg 91%
07:00 +17°C° 0 mm 2 mps 750 mmHg 90%
08:00 +19°C° 0 mm 2 mps 750 mmHg 85%
09:00 +20°C° 0 mm 2 mps 751 mmHg 80%
10:00 +21°C° 0 mm 3 mps 751 mmHg 75%
11:00 +22°C° 0 mm 3 mps 751 mmHg 72%
12:00 +24°C° 0 mm 3 mps 751 mmHg 69%
13:00 +25°C° 0 mm 4 mps 751 mmHg 66%
14:00 +25°C° 0.2 mm 4 mps 751 mmHg 66%
15:00 +25°C° 0.2 mm 4 mps 751 mmHg 67%
16:00 +25°C° 0.2 mm 4 mps 751 mmHg 67%
17:00 +25°C° 0.2 mm 3 mps 751 mmHg 72%
18:00 +24°C° 0.2 mm 3 mps 751 mmHg 76%
19:00 +24°C° 0.2 mm 2 mps 751 mmHg 81%
20:00 +21°C° 0 mm 2 mps 751 mmHg 84%
21:00 +20°C° 0 mm 2 mps 752 mmHg 87%
22:00 +18°C° 0 mm 2 mps 752 mmHg 90%
23:00 +19°C° 0 mm 1 mps 752 mmHg 91%

Tomorrow, 4 July, Saturday

Time Temperature Precipitation Wind Pressure Humidity
00:00 +19°C° 0 mm 1 mps 752 mmHg 91%
01:00 +18°C° 0 mm 1 mps 752 mmHg 91%
02:00 +18°C° 0 mm 1 mps 752 mmHg 92%
03:00 +18°C° 0 mm 1 mps 752 mmHg 92%
04:00 +18°C° 0 mm 1 mps 752 mmHg 92%
05:00 +19°C° 0 mm 1 mps 752 mmHg 90%
06:00 +20°C° 0 mm 1 mps 752 mmHg 88%
07:00 +21°C° 0 mm 1 mps 752 mmHg 86%
08:00 +21°C° 0.4 mm 2 mps 752 mmHg 84%
09:00 +24°C° 0.4 mm 2 mps 752 mmHg 82%
10:00 +25°C° 0.4 mm 3 mps 752 mmHg 80%
11:00 +25°C° 0.4 mm 3 mps 751 mmHg 78%
12:00 +26°C° 0.4 mm 3 mps 751 mmHg 76%
13:00 +27°C° 0.4 mm 3 mps 751 mmHg 75%
14:00 +27°C° 0.2 mm 3 mps 751 mmHg 75%
15:00 +27°C° 0.2 mm 2 mps 751 mmHg 75%
16:00 +27°C° 0.2 mm 2 mps 751 mmHg 74%
17:00 +27°C° 1.1 mm 2 mps 750 mmHg 77%
18:00 +26°C° 1.1 mm 2 mps 750 mmHg 80%
19:00 +26°C° 1.1 mm 1 mps 750 mmHg 83%
20:00 +25°C° 1.4 mm 1 mps 750 mmHg 86%
21:00 +23°C° 1.4 mm 1 mps 750 mmHg 88%
22:00 +22°C° 1.4 mm 1 mps 750 mmHg 91%
23:00 +21°C° 0.3 mm 2 mps 750 mmHg 92%

Day after tomorrow, 5 July, Sunday

Time Temperature Precipitation Wind Pressure Humidity
00:00 +20°C° 0.3 mm 2 mps 750 mmHg 93%
01:00 +20°C° 0.3 mm 2 mps 750 mmHg 93%
02:00 +20°C° 0 mm 2 mps 749 mmHg 94%
03:00 +19°C° 0 mm 2 mps 749 mmHg 95%
04:00 +19°C° 0 mm 2 mps 749 mmHg 95%
05:00 +20°C° 0 mm 2 mps 749 mmHg 94%
06:00 +21°C° 0 mm 2 mps 749 mmHg 92%
07:00 +22°C° 0 mm 3 mps 749 mmHg 91%
08:00 +24°C° 0.1 mm 3 mps 749 mmHg 88%
09:00 +25°C° 0.1 mm 3 mps 749 mmHg 85%
10:00 +25°C° 0.1 mm 2 mps 749 mmHg 81%
11:00 +26°C° 0.4 mm 3 mps 749 mmHg 77%
12:00 +27°C° 0.4 mm 3 mps 749 mmHg 73%
13:00 +28°C° 0.4 mm 3 mps 748 mmHg 69%
14:00 +28°C° 0.4 mm 3 mps 748 mmHg 70%
15:00 +28°C° 0.4 mm 3 mps 748 mmHg 70%
16:00 +28°C° 0.4 mm 3 mps 748 mmHg 71%
17:00 +27°C° 0.5 mm 3 mps 748 mmHg 76%
18:00 +26°C° 0.5 mm 2 mps 748 mmHg 80%
19:00 +25°C° 0.5 mm 2 mps 747 mmHg 85%
20:00 +24°C° 0.2 mm 2 mps 747 mmHg 85%
21:00 +23°C° 0.2 mm 1 mps 747 mmHg 85%
22:00 +22°C° 0.2 mm 1 mps 747 mmHg 85%
23:00 +22°C° 0.4 mm 1 mps 747 mmHg 86%

6 July, Monday

Time Temperature Precipitation Wind Pressure Humidity
00:00 +22°C° 0.4 mm 1 mps 747 mmHg 87%
01:00 +22°C° 0.4 mm 1 mps 747 mmHg 88%
02:00 +21°C° 0 mm 1 mps 747 mmHg 89%
03:00 +21°C° 0 mm 1 mps 747 mmHg 90%
04:00 +19°C° 0 mm 2 mps 747 mmHg 91%
05:00 +20°C° 0 mm 2 mps 747 mmHg 91%
06:00 +21°C° 0 mm 2 mps 747 mmHg 90%
07:00 +22°C° 0 mm 3 mps 747 mmHg 89%
08:00 +22°C° 0.1 mm 3 mps 746 mmHg 88%
09:00 +22°C° 0.1 mm 3 mps 746 mmHg 88%
10:00 +24°C° 0.1 mm 3 mps 746 mmHg 87%
11:00 +25°C° 0.6 mm 4 mps 746 mmHg 84%
12:00 +26°C° 0.6 mm 4 mps 746 mmHg 80%
13:00 +27°C° 0.6 mm 5 mps 745 mmHg 77%
14:00 +26°C° 1.2 mm 5 mps 745 mmHg 78%
15:00 +26°C° 1.2 mm 5 mps 745 mmHg 79%
16:00 +26°C° 1.2 mm 5 mps 745 mmHg 81%
17:00 +26°C° 0.5 mm 5 mps 745 mmHg 83%
18:00 +25°C° 0.5 mm 5 mps 745 mmHg 84%
19:00 +25°C° 0.5 mm 5 mps 745 mmHg 86%
20:00 +23°C° 0 mm 5 mps 746 mmHg 88%
21:00 +21°C° 0 mm 4 mps 746 mmHg 90%
22:00 +20°C° 0 mm 4 mps 746 mmHg 92%
23:00 +20°C° 0 mm 4 mps 747 mmHg 93%

7 July, Tuesday

Time Temperature Precipitation Wind Pressure Humidity
00:00 +19°C° 0 mm 4 mps 747 mmHg 94%
01:00 +18°C° 0 mm 3 mps 747 mmHg 96%
02:00 +18°C° 0 mm 3 mps 747 mmHg 96%
03:00 +18°C° 0 mm 3 mps 748 mmHg 96%
04:00 +17°C° 0 mm 2 mps 748 mmHg 96%
05:00 +19°C° 0 mm 2 mps 748 mmHg 93%
06:00 +20°C° 0 mm 2 mps 749 mmHg 90%
07:00 +21°C° 0 mm 2 mps 749 mmHg 88%
08:00 +23°C° 0 mm 2 mps 749 mmHg 82%
09:00 +24°C° 0 mm 2 mps 750 mmHg 76%
10:00 +26°C° 0 mm 2 mps 750 mmHg 70%
11:00 +27°C° 0 mm 2 mps 750 mmHg 66%
12:00 +28°C° 0 mm 2 mps 750 mmHg 62%
13:00 +29°C° 0 mm 2 mps 750 mmHg 58%
14:00 +29°C° 0 mm 1 mps 750 mmHg 57%
15:00 +29°C° 0 mm 1 mps 750 mmHg 57%
16:00 +29°C° 0 mm 1 mps 750 mmHg 56%
17:00 +29°C° 0 mm 1 mps 750 mmHg 60%
18:00 +29°C° 0 mm 1 mps 750 mmHg 64%
19:00 +26°C° 0 mm 0 mps 750 mmHg 68%
20:00 +24°C° 0 mm 0 mps 750 mmHg 72%
21:00 +22°C° 0 mm 0 mps 750 mmHg 75%
22:00 +21°C° 0 mm 0 mps 750 mmHg 78%
23:00 +20°C° 0 mm 0 mps 750 mmHg 80%

8 July, Wednesday

Time Temperature Precipitation Wind Pressure Humidity
00:00 +20°C° 0 mm 0 mps 750 mmHg 81%
01:00 +19°C° 0 mm 0 mps 750 mmHg 83%
02:00 +19°C° 0 mm 0 mps 750 mmHg 84%
03:00 +18°C° 0 mm 0 mps 750 mmHg 84%
04:00 +18°C° 0 mm 0 mps 751 mmHg 85%
05:00 +19°C° 0 mm 0 mps 751 mmHg 83%
06:00 +23°C° 0 mm 1 mps 751 mmHg 81%
07:00 +24°C° 0 mm 1 mps 751 mmHg 79%
08:00 +25°C° 0 mm 1 mps 750 mmHg 75%
09:00 +26°C° 0 mm 1 mps 750 mmHg 72%
10:00 +28°C° 0 mm 1 mps 750 mmHg 68%
11:00 +28°C° 0 mm 1 mps 750 mmHg 65%
12:00 +29°C° 0 mm 2 mps 750 mmHg 62%
13:00 +30°C° 0 mm 2 mps 750 mmHg 60%
14:00 +30°C° 0 mm 2 mps 750 mmHg 60%
15:00 +30°C° 0 mm 2 mps 750 mmHg 60%
16:00 +30°C° 0 mm 2 mps 750 mmHg 61%
17:00 +30°C° 0 mm 2 mps 749 mmHg 65%
18:00 +29°C° 0 mm 2 mps 749 mmHg 69%
19:00 +29°C° 0 mm 2 mps 749 mmHg 73%
20:00 +27°C° 0 mm 2 mps 749 mmHg 77%
21:00 +25°C° 0 mm 2 mps 749 mmHg 81%
22:00 +23°C° 0 mm 2 mps 749 mmHg 85%
23:00 +23°C° 0 mm 2 mps 749 mmHg 86%
Show more